Time,TemperatureF,DewpointF,PressureIn,WindDirection,WindDirectionDegrees,WindSpeedMPH,WindSpeedGustMPH,Humidity,HourlyPrecipIn,Conditions,Clouds,dailyrainin,SoftwareType,DateUTC
2013-05-09 00:01:00,57.8,54.9,29.95,NNE,28,0.0,0.0,90,0.01,,BKN100,0.00,VWS V14.01,2013-05-09 04:01:00,
2013-05-09 00:02:00,57.7,54.8,29.95,NNE,28,0.0,0.0,90,0.01,,BKN100,0.00,VWS V14.01,2013-05-09 04:02:00,
2013-05-09 00:03:00,57.7,54.8,29.96,NNE,28,0.0,0.0,90,0.01,,BKN100,0.00,VWS V14.01,2013-05-09 04:03:00,
2013-05-09 00:04:00,57.7,55.1,29.96,NNE,28,0.0,0.0,91,0.01,,BKN100,0.00,VWS V14.01,2013-05-09 04:04:00,
2013-05-09 00:07:00,57.6,55.0,29.96,NNE,28,1.0,2.0,91,0.01,,BKN100,0.00,VWS V14.01,2013-05-09 04:07:00,
2013-05-09 00:12:00,57.4,55.1,29.95,NNE,28,0.0,2.0,92,0.01,,BKN100,0.00,VWS V14.01,2013-05-09 04:12:00,
2013-05-09 00:17:00,57.2,54.9,29.96,NNE,28,0.0,2.0,92,0.01,,BKN100,0.00,VWS V14.01,2013-05-09 04:17:00,
2013-05-09 00:22:00,57.1,54.8,29.95,NNE,28,0.0,2.0,92,0.01,,BKN100,0.00,VWS V14.01,2013-05-09 04:22:00,
2013-05-09 00:27:00,57.0,54.7,29.95,NNE,28,0.0,2.0,92,0.01,,BKN100,0.00,VWS V14.01,2013-05-09 04:27:00,
2013-05-09 00:32:00,56.9,54.9,29.95,NNE,28,0.0,0.0,93,0.01,,BKN100,0.00,VWS V14.01,2013-05-09 04:32:00,
2013-05-09 00:37:00,56.7,54.7,29.94,NNE,28,0.0,0.0,93,0.01,,BKN100,0.00,VWS V14.01,2013-05-09 04:37:00,
2013-05-09 00:42:00,56.6,54.6,29.94,NNE,28,0.0,0.0,93,0.01,,BKN100,0.00,VWS V14.01,2013-05-09 04:42:00,
2013-05-09 00:47:00,56.5,54.5,29.94,NNE,28,0.0,2.0,93,0.01,,BKN100,0.00,VWS V14.01,2013-05-09 04:47:00,
2013-05-09 00:52:00,56.4,54.4,29.94,NNE,28,0.0,2.0,93,0.01,,BKN100,0.00,VWS V14.01,2013-05-09 04:52:00,
2013-05-09 00:57:00,56.4,54.4,29.94,NNE,28,0.0,2.0,93,0.01,,BKN100,0.00,VWS V14.01,2013-05-09 04:57:00,
2013-05-09 01:02:00,56.3,54.6,29.94,NNE,28,0.0,0.0,94,0.00,,-RA,0.00,VWS V14.01,2013-05-09 05:02:00,
2013-05-09 01:07:00,56.2,54.5,29.94,NNE,28,0.0,0.0,94,0.00,,-RA,0.00,VWS V14.01,2013-05-09 05:07:00,
2013-05-09 01:12:00,56.2,54.5,29.94,NNE,28,0.0,0.0,94,0.00,,-RA,0.00,VWS V14.01,2013-05-09 05:12:00,
2013-05-09 01:17:00,56.2,54.5,29.94,NNE,28,0.0,0.0,94,0.00,,-RA,0.00,VWS V14.01,2013-05-09 05:17:00,
2013-05-09 01:22:00,56.1,54.4,29.94,NNE,28,0.0,0.0,94,0.00,,-RA,0.00,VWS V14.01,2013-05-09 05:22:00,
2013-05-09 01:27:00,56.1,54.4,29.93,NNE,28,0.0,2.0,94,0.00,,-RA,0.00,VWS V14.01,2013-05-09 05:27:00,
2013-05-09 01:32:00,56.2,54.5,29.94,NNE,28,0.0,0.0,94,0.00,,-RA,0.00,VWS V14.01,2013-05-09 05:32:00,
2013-05-09 01:37:00,56.1,54.4,29.94,NNE,28,1.0,2.0,94,0.00,,-RA,0.00,VWS V14.01,2013-05-09 05:37:00,
2013-05-09 01:42:00,56.0,54.3,29.94,NNE,28,1.0,2.0,94,0.00,,-RA,0.00,VWS V14.01,2013-05-09 05:42:00,
2013-05-09 01:47:00,56.0,54.3,29.93,NNE,28,1.0,2.0,94,0.00,,-RA,0.00,VWS V14.01,2013-05-09 05:47:00,
2013-05-09 01:52:00,55.9,54.2,29.93,NNE,28,0.0,2.0,94,0.00,,-RA,0.00,VWS V14.01,2013-05-09 05:52:00,
2013-05-09 01:58:00,55.8,54.1,29.93,NNE,28,0.0,2.0,94,0.00,,-RA,0.00,VWS V14.01,2013-05-09 05:58:00,
2013-05-09 02:03:00,55.8,54.4,29.93,NNE,28,0.0,0.0,95,0.00,,OVC100,0.00,VWS V14.01,2013-05-09 06:03:00,
2013-05-09 02:08:00,55.8,54.4,29.93,NNE,28,0.0,0.0,95,0.00,,OVC100,0.00,VWS V14.01,2013-05-09 06:08:00,
2013-05-09 02:13:00,55.8,54.4,29.93,NNE,28,0.0,0.0,95,0.00,,OVC100,0.00,VWS V14.01,2013-05-09 06:13:00,
2013-05-09 02:18:00,55.8,54.4,29.93,NNE,28,0.0,0.0,95,0.00,,OVC100,0.00,VWS V14.01,2013-05-09 06:18:00,
2013-05-09 02:23:00,55.9,54.5,29.93,NNE,28,0.0,0.0,95,0.00,,OVC100,0.00,VWS V14.01,2013-05-09 06:23:00,
2013-05-09 02:28:00,55.9,54.5,29.93,NNE,28,0.0,1.0,95,0.00,,OVC100,0.00,VWS V14.01,2013-05-09 06:28:00,
2013-05-09 02:33:00,55.9,54.5,29.93,NNE,28,0.0,0.0,95,0.00,,OVC100,0.00,VWS V14.01,2013-05-09 06:33:00,
2013-05-09 02:38:00,55.8,54.4,29.93,NNE,28,0.0,1.0,95,0.00,,OVC100,0.00,VWS V14.01,2013-05-09 06:38:00,
2013-05-09 02:43:00,55.8,54.4,29.93,NNE,28,0.0,1.0,95,0.00,,OVC100,0.00,VWS V14.01,2013-05-09 06:43:00,
2013-05-09 02:48:00,55.7,54.3,29.93,NNE,28,0.0,1.0,95,0.00,,OVC100,0.00,VWS V14.01,2013-05-09 06:48:00,
2013-05-09 02:53:00,55.7,54.3,29.92,NNE,28,0.0,1.0,95,0.00,,OVC100,0.00,VWS V14.01,2013-05-09 06:53:00,
2013-05-09 02:58:00,55.6,54.2,29.92,NNE,28,2.0,2.0,95,0.00,,OVC100,0.00,VWS V14.01,2013-05-09 06:58:00,
2013-05-09 03:03:00,55.6,54.2,29.92,NNE,28,0.0,0.0,95,0.00,,OVC110,0.00,VWS V14.01,2013-05-09 07:03:00,
2013-05-09 03:08:00,55.5,54.1,29.92,NNE,28,0.0,0.0,95,0.00,,OVC110,0.00,VWS V14.01,2013-05-09 07:08:00,
2013-05-09 03:13:00,55.5,54.4,29.92,NNE,28,0.0,0.0,96,0.00,,OVC110,0.00,VWS V14.01,2013-05-09 07:13:00,
2013-05-09 03:18:00,55.4,54.3,29.92,NNE,28,0.0,1.0,96,0.00,,OVC110,0.00,VWS V14.01,2013-05-09 07:18:00,
2013-05-09 03:23:00,55.4,54.3,29.93,NNE,28,0.0,1.0,96,0.00,,OVC110,0.00,VWS V14.01,2013-05-09 07:23:00,
2013-05-09 03:28:00,55.4,54.3,29.93,NNE,28,0.0,2.0,96,0.00,,OVC110,0.00,VWS V14.01,2013-05-09 07:28:00,
2013-05-09 03:33:00,55.6,54.2,29.93,NNE,28,1.0,1.0,95,0.00,,OVC110,0.00,VWS V14.01,2013-05-09 07:33:00,
2013-05-09 03:38:00,55.8,54.4,29.93,NNE,28,2.0,2.0,95,0.00,,OVC110,0.00,VWS V14.01,2013-05-09 07:38:00,
2013-05-09 03:43:00,55.8,54.4,29.93,NNE,28,0.0,2.0,95,0.00,,OVC110,0.00,VWS V14.01,2013-05-09 07:43:00,
2013-05-09 03:48:00,55.9,54.5,29.93,NNE,28,0.0,2.0,95,0.01,,OVC110,0.01,VWS V14.01,2013-05-09 07:48:00,
2013-05-09 03:53:00,55.9,54.5,29.93,NNE,28,0.0,2.0,95,0.01,,OVC110,0.01,VWS V14.01,2013-05-09 07:53:00,
2013-05-09 03:58:00,55.8,54.4,29.92,NNE,28,0.0,2.0,95,0.01,,OVC110,0.01,VWS V14.01,2013-05-09 07:58:00,
2013-05-09 04:03:00,55.8,54.4,29.92,NNE,28,0.0,0.0,95,0.01,,OVC110,0.01,VWS V14.01,2013-05-09 08:03:00,
2013-05-09 04:08:00,55.6,54.2,29.92,NNE,28,0.0,0.0,95,0.01,,OVC110,0.01,VWS V14.01,2013-05-09 08:08:00,
2013-05-09 04:14:00,55.6,54.2,29.92,NNE,28,0.0,0.0,95,0.01,,OVC110,0.01,VWS V14.01,2013-05-09 08:14:00,
2013-05-09 04:19:00,55.5,54.1,29.92,NNE,28,0.0,0.0,95,0.01,,OVC110,0.01,VWS V14.01,2013-05-09 08:19:00,
2013-05-09 04:24:00,55.4,54.3,29.92,NNE,28,0.0,0.0,96,0.01,,OVC110,0.01,VWS V14.01,2013-05-09 08:24:00,
2013-05-09 04:29:00,55.3,54.2,29.92,NNE,28,0.0,0.0,96,0.01,,OVC110,0.01,VWS V14.01,2013-05-09 08:29:00,
2013-05-09 04:34:00,55.3,54.2,29.92,NNE,28,0.0,0.0,96,0.01,,OVC110,0.01,VWS V14.01,2013-05-09 08:34:00,
2013-05-09 04:39:00,55.3,54.2,29.92,NNE,28,0.0,0.0,96,0.01,,OVC110,0.01,VWS V14.01,2013-05-09 08:39:00,
2013-05-09 04:44:00,55.2,54.1,29.92,NNE,28,0.0,0.0,96,0.01,,OVC110,0.01,VWS V14.01,2013-05-09 08:44:00,
2013-05-09 04:49:00,55.1,54.0,29.92,NNE,28,0.0,0.0,96,0.01,,OVC110,0.01,VWS V14.01,2013-05-09 08:49:00,
2013-05-09 04:54:00,55.0,53.9,29.92,NNE,28,0.0,0.0,96,0.01,,OVC110,0.01,VWS V14.01,2013-05-09 08:54:00,
2013-05-09 04:59:00,54.9,53.8,29.92,NNE,28,1.0,2.0,96,0.01,,OVC110,0.01,VWS V14.01,2013-05-09 08:59:00,
2013-05-09 05:04:00,54.8,53.7,29.92,NNE,28,0.0,1.0,96,0.00,,SCT070,0.01,VWS V14.01,2013-05-09 09:04:00,
2013-05-09 05:09:00,54.7,53.6,29.92,NNE,28,0.0,1.0,96,0.00,,SCT070,0.01,VWS V14.01,2013-05-09 09:09:00,
2013-05-09 05:14:00,54.5,53.4,29.92,NNE,28,0.0,1.0,96,0.00,,SCT070,0.01,VWS V14.01,2013-05-09 09:14:00,
2013-05-09 05:19:00,54.4,53.3,29.92,NNE,28,0.0,1.0,96,0.00,,SCT070,0.01,VWS V14.01,2013-05-09 09:19:00,
2013-05-09 05:24:00,54.2,53.1,29.92,NNE,28,0.0,1.0,96,0.00,,SCT070,0.01,VWS V14.01,2013-05-09 09:24:00,
2013-05-09 05:29:00,54.0,52.9,29.92,NNE,28,0.0,1.0,96,0.00,,SCT070,0.01,VWS V14.01,2013-05-09 09:29:00,
2013-05-09 05:34:00,53.9,52.8,29.92,NNE,28,0.0,0.0,96,0.00,,SCT070,0.01,VWS V14.01,2013-05-09 09:34:00,
2013-05-09 05:39:00,53.8,52.7,29.92,NNE,28,0.0,0.0,96,0.00,,SCT070,0.01,VWS V14.01,2013-05-09 09:39:00,
2013-05-09 05:44:00,53.7,52.6,29.92,NNE,28,0.0,1.0,96,0.00,,SCT070,0.01,VWS V14.01,2013-05-09 09:44:00,
2013-05-09 05:49:00,53.7,52.6,29.93,NNE,28,0.0,1.0,96,0.00,,SCT070,0.01,VWS V14.01,2013-05-09 09:49:00,
2013-05-09 05:54:00,53.6,52.5,29.93,NNE,28,0.0,1.0,96,0.00,,SCT070,0.01,VWS V14.01,2013-05-09 09:54:00,
2013-05-09 05:59:00,53.6,52.8,29.93,NNE,28,0.0,1.0,97,0.00,,SCT070,0.01,VWS V14.01,2013-05-09 09:59:00,
2013-05-09 06:04:00,53.2,52.1,29.93,NNE,28,0.0,0.0,96,0.00,,,0.01,VWS V14.01,2013-05-09 10:04:00,
2013-05-09 06:09:00,53.0,51.9,29.93,NNE,28,0.0,0.0,96,0.00,,,0.01,VWS V14.01,2013-05-09 10:09:00,
2013-05-09 06:14:00,52.9,51.8,29.93,NNE,28,0.0,0.0,96,0.00,,,0.01,VWS V14.01,2013-05-09 10:14:00,
2013-05-09 06:19:00,52.9,52.1,29.94,NNE,28,0.0,0.0,97,0.00,,,0.01,VWS V14.01,2013-05-09 10:19:00,
2013-05-09 06:25:00,53.3,52.5,29.94,NNE,28,0.0,0.0,97,0.00,,,0.01,VWS V14.01,2013-05-09 10:25:00,
2013-05-09 06:30:00,53.6,53.0,29.94,NNE,28,0.0,0.0,98,0.00,,,0.01,VWS V14.01,2013-05-09 10:30:00,
2013-05-09 06:35:00,53.8,53.0,29.94,NNE,28,0.0,0.0,97,0.00,,,0.01,VWS V14.01,2013-05-09 10:35:00,
2013-05-09 06:40:00,53.9,53.1,29.94,NNE,28,0.0,0.0,97,0.00,,,0.01,VWS V14.01,2013-05-09 10:40:00,
2013-05-09 06:45:00,54.1,53.5,29.95,NNE,28,0.0,0.0,98,0.00,,,0.01,VWS V14.01,2013-05-09 10:45:00,
2013-05-09 06:50:00,54.1,53.5,29.95,NNE,28,0.0,0.0,98,0.00,,,0.01,VWS V14.01,2013-05-09 10:50:00,
2013-05-09 06:55:00,54.2,53.7,29.95,NNE,28,0.0,0.0,98,0.00,,,0.01,VWS V14.01,2013-05-09 10:55:00,
2013-05-09 07:00:00,54.3,53.8,29.95,NNE,28,0.0,0.0,98,0.00,,,0.01,VWS V14.01,2013-05-09 11:00:00,
2013-05-09 07:05:00,54.4,53.8,29.96,NNE,28,0.0,0.0,98,0.00,,,0.01,VWS V14.01,2013-05-09 11:05:00,
2013-05-09 07:10:00,54.5,54.0,29.96,NNE,28,0.0,0.0,98,0.00,,,0.01,VWS V14.01,2013-05-09 11:10:00,
2013-05-09 07:15:00,54.6,54.0,29.97,NNE,28,0.0,0.0,98,0.00,,,0.01,VWS V14.01,2013-05-09 11:15:00,
2013-05-09 07:20:00,54.7,54.2,29.97,NNE,28,0.0,0.0,98,0.00,,,0.01,VWS V14.01,2013-05-09 11:20:00,
2013-05-09 07:25:00,54.8,54.2,29.97,NNE,28,0.0,0.0,98,0.00,,,0.01,VWS V14.01,2013-05-09 11:25:00,
2013-05-09 07:30:00,54.8,54.2,29.97,NNE,28,0.0,0.0,98,0.00,,,0.01,VWS V14.01,2013-05-09 11:30:00,
2013-05-09 07:35:00,54.9,54.3,29.97,NNE,28,0.0,0.0,98,0.00,,,0.01,VWS V14.01,2013-05-09 11:35:00,
2013-05-09 07:40:00,55.0,54.5,29.97,NNE,28,0.0,0.0,98,0.00,,,0.01,VWS V14.01,2013-05-09 11:40:00,
2013-05-09 07:45:00,55.0,54.5,29.98,NNE,28,0.0,0.0,98,0.00,,,0.01,VWS V14.01,2013-05-09 11:45:00,
2013-05-09 07:50:00,55.1,54.5,29.98,NNE,28,0.0,0.0,98,0.00,,,0.01,VWS V14.01,2013-05-09 11:50:00,
2013-05-09 07:55:00,55.2,54.7,29.98,NNE,28,0.0,0.0,98,0.00,,,0.01,VWS V14.01,2013-05-09 11:55:00,
2013-05-09 08:00:00,55.2,54.7,29.98,NNE,28,0.0,0.0,98,0.00,,,0.01,VWS V14.01,2013-05-09 12:00:00,
2013-05-09 08:05:00,55.3,54.8,29.98,NNE,19,0.0,1.0,98,0.00,,,0.01,VWS V14.01,2013-05-09 12:05:00,
2013-05-09 08:10:00,55.2,54.4,29.98,NNE,19,0.0,1.0,97,0.00,,,0.01,VWS V14.01,2013-05-09 12:10:00,
2013-05-09 08:15:00,55.2,54.4,29.98,NNE,19,0.0,1.0,97,0.00,,,0.01,VWS V14.01,2013-05-09 12:15:00,
2013-05-09 08:20:00,55.2,54.4,29.98,NNE,19,0.0,1.0,97,0.00,,,0.01,VWS V14.01,2013-05-09 12:20:00,
2013-05-09 08:25:00,55.5,54.7,29.98,NNE,19,0.0,1.0,97,0.00,,,0.01,VWS V14.01,2013-05-09 12:25:00,
2013-05-09 08:30:00,55.7,54.9,29.98,NNE,19,0.0,0.0,97,0.00,,,0.01,VWS V14.01,2013-05-09 12:30:00,
2013-05-09 08:36:00,55.8,55.0,29.98,NNE,19,0.0,0.0,97,0.00,,,0.01,VWS V14.01,2013-05-09 12:36:00,
2013-05-09 08:41:00,56.0,55.2,29.98,NNE,19,0.0,0.0,97,0.00,,,0.01,VWS V14.01,2013-05-09 12:41:00,
2013-05-09 08:46:00,56.1,55.3,29.99,NNE,19,0.0,0.0,97,0.00,,,0.01,VWS V14.01,2013-05-09 12:46:00,
2013-05-09 08:51:00,56.3,55.5,29.98,NNE,19,0.0,0.0,97,0.00,,,0.01,VWS V14.01,2013-05-09 12:51:00,
2013-05-09 08:56:00,56.5,55.4,29.98,NNE,19,1.0,2.0,96,0.00,,,0.01,VWS V14.01,2013-05-09 12:56:00,
2013-05-09 09:01:00,57.0,55.6,29.98,SE,143,0.0,1.0,95,0.00,,,0.01,VWS V14.01,2013-05-09 13:01:00,
2013-05-09 09:06:00,57.8,55.8,29.98,SE,143,0.0,2.0,93,0.00,,,0.01,VWS V14.01,2013-05-09 13:06:00,
2013-05-09 09:11:00,58.7,55.8,29.98,SE,143,1.0,2.0,90,0.00,,,0.01,VWS V14.01,2013-05-09 13:11:00,
2013-05-09 09:16:00,59.7,55.5,29.98,SSE,148,1.0,3.0,86,0.00,,,0.01,VWS V14.01,2013-05-09 13:16:00,
2013-05-09 09:21:00,60.4,54.5,29.98,South,184,2.0,3.0,81,0.00,,,0.01,VWS V14.01,2013-05-09 13:21:00,
2013-05-09 09:26:00,61.0,54.8,29.98,SSW,200,2.0,3.0,80,0.00,,,0.01,VWS V14.01,2013-05-09 13:26:00,
2013-05-09 09:31:00,61.5,55.3,29.98,SW,221,1.0,2.0,80,0.00,,,0.01,VWS V14.01,2013-05-09 13:31:00,
2013-05-09 09:36:00,62.1,56.2,29.98,NW,306,3.0,4.0,81,0.00,,,0.01,VWS V14.01,2013-05-09 13:36:00,
2013-05-09 09:41:00,62.5,55.6,29.98,NW,314,3.0,4.0,78,0.00,,,0.01,VWS V14.01,2013-05-09 13:41:00,
2013-05-09 09:46:00,62.7,56.5,29.97,WSW,250,3.0,4.0,80,0.00,,,0.01,VWS V14.01,2013-05-09 13:46:00,
2013-05-09 09:51:00,63.1,56.8,29.97,NW,317,1.0,4.0,80,0.00,,,0.01,VWS V14.01,2013-05-09 13:51:00,
2013-05-09 09:56:00,63.5,57.2,29.97,WNW,288,3.0,4.0,80,0.00,,,0.01,VWS V14.01,2013-05-09 13:56:00,
2013-05-09 10:01:00,64.0,57.4,29.98,WNW,287,3.0,3.0,79,0.00,,,0.01,VWS V14.01,2013-05-09 14:01:00,
2013-05-09 10:06:00,64.6,57.6,29.98,WNW,287,1.0,3.0,78,0.00,,,0.01,VWS V14.01,2013-05-09 14:06:00,
2013-05-09 10:11:00,65.4,57.7,29.98,NW,323,3.0,5.0,76,0.00,,,0.01,VWS V14.01,2013-05-09 14:11:00,
2013-05-09 10:16:00,66.2,58.0,29.98,NW,309,2.0,5.0,75,0.00,,,0.01,VWS V14.01,2013-05-09 14:16:00,
2013-05-09 10:21:00,66.7,58.5,29.98,NW,307,3.0,5.0,75,0.00,,,0.01,VWS V14.01,2013-05-09 14:21:00,
2013-05-09 10:26:00,67.2,58.6,29.98,WNW,300,0.0,7.0,74,0.00,,,0.01,VWS V14.01,2013-05-09 14:26:00,
2013-05-09 10:31:00,67.9,56.5,29.98,NW,313,3.0,4.0,67,0.00,,,0.01,VWS V14.01,2013-05-09 14:31:00,
2013-05-09 10:36:00,68.3,57.3,29.97,NNW,331,1.0,6.0,68,0.00,,,0.01,VWS V14.01,2013-05-09 14:36:00,
2013-05-09 10:41:00,68.9,57.5,29.97,NNW,341,2.0,6.0,67,0.00,,,0.01,VWS V14.01,2013-05-09 14:41:00,
2013-05-09 10:47:00,69.7,57.4,29.98,NW,319,2.0,6.0,65,0.00,,,0.01,VWS V14.01,2013-05-09 14:47:00,
2013-05-09 10:52:00,69.8,57.1,29.98,NW,311,3.0,6.0,64,0.00,,,0.01,VWS V14.01,2013-05-09 14:52:00,
2013-05-09 10:57:00,70.1,57.8,29.98,North,350,3.0,6.0,65,0.00,,,0.01,VWS V14.01,2013-05-09 14:57:00,
2013-05-09 11:02:00,70.5,58.6,29.98,NW,304,3.0,4.0,66,0.00,,CLR,0.01,VWS V14.01,2013-05-09 15:02:00,
2013-05-09 11:07:00,70.9,55.4,29.98,NW,304,2.0,6.0,58,0.00,,CLR,0.01,VWS V14.01,2013-05-09 15:07:00,
2013-05-09 11:12:00,71.2,55.7,29.98,NNW,333,3.0,6.0,58,0.00,,CLR,0.01,VWS V14.01,2013-05-09 15:12:00,
2013-05-09 11:17:00,71.6,56.5,29.98,NW,318,1.0,6.0,59,0.00,,CLR,0.01,VWS V14.01,2013-05-09 15:17:00,
2013-05-09 11:22:00,72.2,57.1,29.98,NW,324,4.0,7.0,59,0.00,,CLR,0.01,VWS V14.01,2013-05-09 15:22:00,
2013-05-09 11:27:00,72.4,56.3,29.98,North,360,2.0,7.0,57,0.00,,CLR,0.01,VWS V14.01,2013-05-09 15:27:00,
2013-05-09 11:32:00,72.4,54.8,29.98,NNW,332,6.0,8.0,54,0.00,,CLR,0.01,VWS V14.01,2013-05-09 15:32:00,
2013-05-09 11:37:00,72.4,55.3,29.98,WNW,302,4.0,8.0,55,0.00,,CLR,0.01,VWS V14.01,2013-05-09 15:37:00,
2013-05-09 11:42:00,72.7,51.3,29.98,NW,316,6.0,8.0,47,0.00,,CLR,0.01,VWS V14.01,2013-05-09 15:42:00,
2013-05-09 11:47:00,72.6,53.5,29.98,WNW,302,2.0,8.0,51,0.00,,CLR,0.01,VWS V14.01,2013-05-09 15:47:00,
2013-05-09 11:52:00,72.9,54.3,29.98,NW,305,2.0,8.0,52,0.00,,CLR,0.01,VWS V14.01,2013-05-09 15:52:00,
2013-05-09 11:57:00,73.0,52.7,29.98,NNW,340,2.0,10.0,49,0.00,,CLR,0.01,VWS V14.01,2013-05-09 15:57:00,
2013-05-09 12:02:00,73.3,52.5,29.98,NNW,336,2.0,6.0,48,0.00,,CLR,0.01,VWS V14.01,2013-05-09 16:02:00,
2013-05-09 12:07:00,74.0,53.7,29.98,NW,309,5.0,6.0,49,0.00,,CLR,0.01,VWS V14.01,2013-05-09 16:07:00,
2013-05-09 12:12:00,74.2,54.4,29.98,West,269,1.0,6.0,50,0.00,,CLR,0.01,VWS V14.01,2013-05-09 16:12:00,
2013-05-09 12:17:00,74.2,49.7,29.98,WNW,290,9.0,9.0,42,0.00,,CLR,0.01,VWS V14.01,2013-05-09 16:17:00,
2013-05-09 12:22:00,73.9,47.4,29.99,NW,322,1.0,9.0,39,0.00,,CLR,0.01,VWS V14.01,2013-05-09 16:22:00,
2013-05-09 12:27:00,74.2,50.9,29.99,WNW,288,2.0,9.0,44,0.00,,CLR,0.01,VWS V14.01,2013-05-09 16:27:00,
2013-05-09 12:32:00,74.7,49.5,29.98,NW,309,4.0,7.0,41,0.00,,CLR,0.01,VWS V14.01,2013-05-09 16:32:00,
2013-05-09 12:37:00,74.7,46.0,29.98,NW,304,2.0,7.0,36,0.00,,CLR,0.01,VWS V14.01,2013-05-09 16:37:00,
2013-05-09 12:42:00,74.8,50.2,29.98,North,5,3.0,9.0,42,0.00,,CLR,0.01,VWS V14.01,2013-05-09 16:42:00,
2013-05-09 12:47:00,75.2,51.8,29.98,WNW,300,5.0,9.0,44,0.00,,CLR,0.01,VWS V14.01,2013-05-09 16:47:00,
2013-05-09 12:52:00,75.4,48.8,29.98,North,11,3.0,9.0,39,0.00,,CLR,0.01,VWS V14.01,2013-05-09 16:52:00,
2013-05-09 12:58:00,75.5,49.5,29.98,NW,315,5.0,9.0,40,0.00,,CLR,0.01,VWS V14.01,2013-05-09 16:58:00,
2013-05-09 13:03:00,75.6,47.5,29.98,NW,311,2.0,5.0,37,0.00,,CLR,0.01,VWS V14.01,2013-05-09 17:03:00,
2013-05-09 13:08:00,75.7,47.6,29.98,NW,321,1.0,9.0,37,0.00,,CLR,0.01,VWS V14.01,2013-05-09 17:08:00,
2013-05-09 13:13:00,76.1,52.0,29.98,WNW,296,2.0,9.0,43,0.00,,CLR,0.01,VWS V14.01,2013-05-09 17:13:00,
2013-05-09 13:18:00,76.3,47.4,29.98,NNW,333,3.0,9.0,36,0.00,,CLR,0.01,VWS V14.01,2013-05-09 17:18:00,
2013-05-09 13:23:00,76.4,50.3,29.98,NNW,336,2.0,9.0,40,0.00,,CLR,0.01,VWS V14.01,2013-05-09 17:23:00,
2013-05-09 13:28:00,76.2,46.6,29.98,West,275,1.0,9.0,35,0.00,,CLR,0.01,VWS V14.01,2013-05-09 17:28:00,
2013-05-09 13:33:00,76.6,49.1,29.97,NNE,32,1.0,3.0,38,0.00,,CLR,0.01,VWS V14.01,2013-05-09 17:33:00,
2013-05-09 13:38:00,77.0,47.3,29.98,WNW,297,4.0,8.0,35,0.00,,CLR,0.01,VWS V14.01,2013-05-09 17:38:00,
2013-05-09 13:43:00,76.9,47.2,29.98,WNW,288,2.0,8.0,35,0.00,,CLR,0.01,VWS V14.01,2013-05-09 17:43:00,
2013-05-09 13:48:00,76.8,46.3,29.98,WNW,301,3.0,8.0,34,0.00,,CLR,0.01,VWS V14.01,2013-05-09 17:48:00,
2013-05-09 13:53:00,76.8,47.8,29.97,NW,317,2.0,8.0,36,0.00,,CLR,0.01,VWS V14.01,2013-05-09 17:53:00,
2013-05-09 13:58:00,77.4,51.2,29.97,NNE,15,5.0,8.0,40,0.00,,CLR,0.01,VWS V14.01,2013-05-09 17:58:00,
2013-05-09 14:03:00,77.5,48.5,29.97,NW,319,3.0,7.0,36,0.00,,CLR,0.01,VWS V14.01,2013-05-09 18:03:00,
2013-05-09 14:08:00,77.4,44.4,29.98,NW,315,2.0,7.0,31,0.00,,CLR,0.01,VWS V14.01,2013-05-09 18:08:00,
2013-05-09 14:13:00,77.3,49.0,29.97,North,355,2.0,7.0,37,0.00,,CLR,0.01,VWS V14.01,2013-05-09 18:13:00,
2013-05-09 14:18:00,77.9,44.0,29.97,NW,311,2.0,7.0,30,0.00,,CLR,0.01,VWS V14.01,2013-05-09 18:18:00,
2013-05-09 14:23:00,78.1,45.9,29.97,NW,311,4.0,7.0,32,0.00,,CLR,0.01,VWS V14.01,2013-05-09 18:23:00,
2013-05-09 14:28:00,78.0,47.4,29.97,WNW,287,2.0,7.0,34,0.00,,CLR,0.01,VWS V14.01,2013-05-09 18:28:00,
2013-05-09 14:33:00,77.6,42.9,29.97,NW,314,2.0,6.0,29,0.00,,CLR,0.01,VWS V14.01,2013-05-09 18:33:00,
2013-05-09 14:38:00,77.7,48.7,29.97,North,360,2.0,6.0,36,0.00,,CLR,0.01,VWS V14.01,2013-05-09 18:38:00,
2013-05-09 14:43:00,78.1,46.7,29.97,WNW,300,3.0,6.0,33,0.00,,CLR,0.01,VWS V14.01,2013-05-09 18:43:00,
2013-05-09 14:48:00,78.5,44.5,29.97,WNW,302,3.0,6.0,30,0.00,,CLR,0.01,VWS V14.01,2013-05-09 18:48:00,
2013-05-09 14:53:00,78.9,49.0,29.96,NW,319,3.0,6.0,35,0.00,,CLR,0.01,VWS V14.01,2013-05-09 18:53:00,
2013-05-09 14:59:00,78.7,46.4,29.96,NNW,344,5.0,10.0,32,0.00,,CLR,0.01,VWS V14.01,2013-05-09 18:59:00,
2013-05-09 15:04:00,78.2,46.0,29.96,NW,323,3.0,5.0,32,0.00,,FEW070,0.01,VWS V14.01,2013-05-09 19:04:00,
2013-05-09 15:09:00,78.2,43.4,29.96,East,86,5.0,5.0,29,0.00,,FEW070,0.01,VWS V14.01,2013-05-09 19:09:00,
2013-05-09 15:14:00,78.1,49.7,29.96,North,5,3.0,5.0,37,0.00,,FEW070,0.01,VWS V14.01,2013-05-09 19:14:00,
2013-05-09 15:19:00,78.0,48.9,29.96,North,350,6.0,9.0,36,0.00,,FEW070,0.01,VWS V14.01,2013-05-09 19:19:00,
2013-05-09 15:24:00,78.0,48.9,29.96,NNW,342,3.0,9.0,36,0.00,,FEW070,0.01,VWS V14.01,2013-05-09 19:24:00,
2013-05-09 15:29:00,78.0,46.6,29.96,NW,317,4.0,9.0,33,0.00,,FEW070,0.01,VWS V14.01,2013-05-09 19:29:00,
2013-05-09 15:34:00,77.7,45.5,29.96,NW,304,0.0,6.0,32,0.00,,FEW070,0.01,VWS V14.01,2013-05-09 19:34:00,
2013-05-09 15:39:00,78.3,46.9,29.95,NNW,334,1.0,6.0,33,0.00,,FEW070,0.01,VWS V14.01,2013-05-09 19:39:00,
2013-05-09 15:44:00,78.2,46.8,29.95,NNE,16,6.0,8.0,33,0.00,,FEW070,0.01,VWS V14.01,2013-05-09 19:44:00,
2013-05-09 15:49:00,78.0,46.6,29.95,NW,319,4.0,8.0,33,0.00,,FEW070,0.01,VWS V14.01,2013-05-09 19:49:00,
2013-05-09 15:54:00,77.8,45.6,29.95,NW,317,3.0,9.0,32,0.00,,FEW070,0.01,VWS V14.01,2013-05-09 19:54:00,
2013-05-09 15:59:00,77.8,48.0,29.95,NNW,344,3.0,9.0,35,0.00,,FEW070,0.01,VWS V14.01,2013-05-09 19:59:00,
2013-05-09 16:04:00,77.6,44.6,29.95,NNW,334,1.0,4.0,31,0.00,,SCT080,0.01,VWS V14.01,2013-05-09 20:04:00,
2013-05-09 16:09:00,77.8,43.9,29.95,North,5,6.0,6.0,30,0.00,,SCT080,0.01,VWS V14.01,2013-05-09 20:09:00,
2013-05-09 16:14:00,78.1,49.0,29.95,North,11,3.0,6.0,36,0.00,,SCT080,0.01,VWS V14.01,2013-05-09 20:14:00,
2013-05-09 16:19:00,78.8,49.6,29.95,NNE,22,2.0,6.0,36,0.00,,SCT080,0.01,VWS V14.01,2013-05-09 20:19:00,
2013-05-09 16:24:00,78.9,47.4,29.95,North,350,0.0,7.0,33,0.00,,SCT080,0.01,VWS V14.01,2013-05-09 20:24:00,
2013-05-09 16:29:00,78.9,46.6,29.94,NW,315,4.0,8.0,32,0.00,,SCT080,0.01,VWS V14.01,2013-05-09 20:29:00,
2013-05-09 16:34:00,78.2,45.1,29.95,NNW,341,1.0,6.0,31,0.00,,SCT080,0.01,VWS V14.01,2013-05-09 20:34:00,
2013-05-09 16:39:00,78.0,45.8,29.94,NW,321,0.0,6.0,32,0.00,,SCT080,0.01,VWS V14.01,2013-05-09 20:39:00,
2013-05-09 16:44:00,78.0,47.4,29.94,NW,321,2.0,6.0,34,0.00,,SCT080,0.01,VWS V14.01,2013-05-09 20:44:00,
2013-05-09 16:49:00,77.8,44.8,29.94,NW,320,2.0,6.0,31,0.00,,SCT080,0.01,VWS V14.01,2013-05-09 20:49:00,
2013-05-09 16:54:00,77.5,44.5,29.94,North,5,0.0,6.0,31,0.00,,SCT080,0.01,VWS V14.01,2013-05-09 20:54:00,
2013-05-09 16:59:00,77.7,47.9,29.94,North,11,2.0,6.0,35,0.00,,SCT080,0.01,VWS V14.01,2013-05-09 20:59:00,
2013-05-09 17:05:00,78.0,45.8,29.94,NNE,15,3.0,3.0,32,0.00,,SCT080,0.01,VWS V14.01,2013-05-09 21:05:00,
2013-05-09 17:10:00,78.0,43.2,29.94,North,355,1.0,5.0,29,0.00,,SCT080,0.01,VWS V14.01,2013-05-09 21:10:00,
2013-05-09 17:15:00,78.1,43.3,29.93,ENE,73,3.0,5.0,29,0.00,,SCT080,0.01,VWS V14.01,2013-05-09 21:15:00,
2013-05-09 17:20:00,78.0,46.6,29.93,North,355,2.0,7.0,33,0.00,,SCT080,0.01,VWS V14.01,2013-05-09 21:20:00,
2013-05-09 17:25:00,77.6,42.0,29.93,NNE,20,5.0,9.0,28,0.00,,SCT080,0.01,VWS V14.01,2013-05-09 21:25:00,
2013-05-09 17:30:00,77.3,44.3,29.93,North,355,2.0,9.0,31,0.00,,SCT080,0.01,VWS V14.01,2013-05-09 21:30:00,
2013-05-09 17:35:00,77.5,47.7,29.93,NNE,15,2.0,5.0,35,0.00,,SCT080,0.01,VWS V14.01,2013-05-09 21:35:00,
2013-05-09 17:40:00,77.7,46.3,29.93,North,5,3.0,5.0,33,0.00,,SCT080,0.01,VWS V14.01,2013-05-09 21:40:00,
2013-05-09 17:46:00,77.8,45.6,29.93,NNW,347,1.0,5.0,32,0.00,,SCT080,0.01,VWS V14.01,2013-05-09 21:46:00,
2013-05-09 17:51:00,77.8,44.8,29.93,NNE,15,4.0,5.0,31,0.00,,SCT080,0.01,VWS V14.01,2013-05-09 21:51:00,
2013-05-09 17:56:00,77.4,42.7,29.93,North,350,3.0,5.0,29,0.00,,SCT080,0.01,VWS V14.01,2013-05-09 21:56:00,
2013-05-09 18:01:00,77.1,42.4,29.93,North,355,1.0,3.0,29,0.00,,FEW095,0.01,VWS V14.01,2013-05-09 22:01:00,
2013-05-09 18:07:00,76.9,44.8,29.92,North,360,1.0,4.0,32,0.00,,FEW095,0.01,VWS V14.01,2013-05-09 22:07:00,
2013-05-09 18:12:00,76.7,47.0,29.92,NNE,17,0.0,4.0,35,0.00,,FEW095,0.01,VWS V14.01,2013-05-09 22:12:00,
2013-05-09 18:17:00,76.7,44.7,29.92,NNE,17,2.0,4.0,32,0.00,,FEW095,0.01,VWS V14.01,2013-05-09 22:17:00,
2013-05-09 18:22:00,76.6,46.2,29.92,NNE,17,0.0,4.0,34,0.00,,FEW095,0.01,VWS V14.01,2013-05-09 22:22:00,
2013-05-09 18:28:00,76.7,49.2,29.93,NNE,17,1.0,4.0,38,0.00,,FEW095,0.01,VWS V14.01,2013-05-09 22:28:00,
2013-05-09 18:33:00,76.7,48.5,29.93,NNE,21,0.0,2.0,37,0.00,,FEW095,0.01,VWS V14.01,2013-05-09 22:33:00,
2013-05-09 18:38:00,76.7,46.2,29.93,NNE,21,1.0,2.0,34,0.00,,FEW095,0.01,VWS V14.01,2013-05-09 22:38:00,
2013-05-09 18:43:00,76.6,45.4,29.93,NNE,22,1.0,4.0,33,0.00,,FEW095,0.01,VWS V14.01,2013-05-09 22:43:00,
2013-05-09 18:49:00,76.4,47.5,29.93,NNE,22,0.0,4.0,36,0.00,,FEW095,0.01,VWS V14.01,2013-05-09 22:49:00,
2013-05-09 18:54:00,76.3,48.8,29.93,NNE,22,0.0,4.0,38,0.00,,FEW095,0.01,VWS V14.01,2013-05-09 22:54:00,
2013-05-09 18:59:00,76.2,48.0,29.94,NNE,22,0.0,4.0,37,0.00,,FEW095,0.01,VWS V14.01,2013-05-09 22:59:00,
2013-05-09 19:04:00,76.0,45.6,29.94,NNE,22,1.0,1.0,34,0.00,,BKN090,0.01,VWS V14.01,2013-05-09 23:04:00,
2013-05-09 19:09:00,75.3,46.5,29.94,North,10,3.0,3.0,36,0.00,,BKN090,0.01,VWS V14.01,2013-05-09 23:09:00,
2013-05-09 19:14:00,74.2,47.7,29.94,NNE,15,1.0,3.0,39,0.00,,BKN090,0.01,VWS V14.01,2013-05-09 23:14:00,
2013-05-09 19:19:00,73.7,46.5,29.94,NNE,15,2.0,3.0,38,0.00,,BKN090,0.01,VWS V14.01,2013-05-09 23:19:00,
2013-05-09 19:24:00,73.3,46.2,29.94,NNE,15,1.0,3.0,38,0.00,,BKN090,0.01,VWS V14.01,2013-05-09 23:24:00,
2013-05-09 19:29:00,73.1,47.4,29.95,NNE,15,0.0,3.0,40,0.00,,BKN090,0.01,VWS V14.01,2013-05-09 23:29:00,
2013-05-09 19:34:00,72.8,47.1,29.94,NNE,15,0.0,0.0,40,0.00,,BKN090,0.01,VWS V14.01,2013-05-09 23:34:00,
2013-05-09 19:39:00,72.5,47.5,29.94,NNE,15,0.0,0.0,41,0.00,,BKN090,0.01,VWS V14.01,2013-05-09 23:39:00,
2013-05-09 19:44:00,72.1,46.5,29.94,NNE,15,0.0,0.0,40,0.00,,BKN090,0.01,VWS V14.01,2013-05-09 23:44:00,
2013-05-09 19:49:00,71.7,46.1,29.94,NNE,15,0.0,0.0,40,0.00,,BKN090,0.01,VWS V14.01,2013-05-09 23:49:00,
2013-05-09 19:54:00,71.5,46.6,29.95,NNE,15,0.0,0.0,41,0.00,,BKN090,0.01,VWS V14.01,2013-05-09 23:54:00,
2013-05-09 19:59:00,71.1,47.5,29.95,NNE,15,0.0,0.0,43,0.00,,BKN090,0.01,VWS V14.01,2013-05-09 23:59:00,
2013-05-09 20:04:00,70.5,47.0,29.95,NNE,15,0.0,0.0,43,0.00,,BKN100,0.01,VWS V14.01,2013-05-10 00:04:00,
2013-05-09 20:09:00,70.0,46.5,29.95,NNE,15,0.0,0.0,43,0.00,,BKN100,0.01,VWS V14.01,2013-05-10 00:09:00,
2013-05-09 20:14:00,69.6,46.8,29.95,NNE,15,0.0,0.0,44,0.00,,BKN100,0.01,VWS V14.01,2013-05-10 00:14:00,
2013-05-09 20:19:00,69.3,46.5,29.95,NNE,15,0.0,0.0,44,0.00,,BKN100,0.01,VWS V14.01,2013-05-10 00:19:00,
2013-05-09 20:24:00,69.0,45.0,29.94,NNE,15,0.0,0.0,42,0.00,,BKN100,0.01,VWS V14.01,2013-05-10 00:24:00,
2013-05-09 20:29:00,68.8,44.8,29.94,NNE,15,0.0,0.0,42,0.00,,BKN100,0.01,VWS V14.01,2013-05-10 00:29:00,
2013-05-09 20:34:00,68.6,44.6,29.94,NNE,15,0.0,0.0,42,0.00,,BKN100,0.01,VWS V14.01,2013-05-10 00:34:00,
2013-05-09 20:40:00,68.4,43.8,29.94,NNE,15,0.0,0.0,41,0.00,,BKN100,0.01,VWS V14.01,2013-05-10 00:40:00,
2013-05-09 20:45:00,68.1,42.9,29.94,NNE,15,0.0,0.0,40,0.00,,BKN100,0.01,VWS V14.01,2013-05-10 00:45:00,
2013-05-09 20:50:00,67.9,42.7,29.94,NNE,15,0.0,0.0,40,0.00,,BKN100,0.01,VWS V14.01,2013-05-10 00:50:00,
2013-05-09 20:55:00,67.9,42.1,29.94,NNE,15,0.0,0.0,39,0.00,,BKN100,0.01,VWS V14.01,2013-05-10 00:55:00,
2013-05-09 21:00:00,67.7,41.9,29.94,NNE,15,0.0,1.0,39,0.00,,SCT110,0.01,VWS V14.01,2013-05-10 01:00:00,
2013-05-09 21:05:00,67.8,42.0,29.94,NNE,20,0.0,2.0,39,0.00,,SCT110,0.01,VWS V14.01,2013-05-10 01:05:00,
2013-05-09 21:10:00,67.8,41.3,29.94,NNE,22,1.0,2.0,38,0.00,,SCT110,0.01,VWS V14.01,2013-05-10 01:10:00,
2013-05-09 21:15:00,67.7,41.2,29.94,NNE,26,0.0,2.0,38,0.00,,SCT110,0.01,VWS V14.01,2013-05-10 01:15:00,
2013-05-09 21:20:00,67.7,40.5,29.94,NNE,29,0.0,2.0,37,0.00,,SCT110,0.01,VWS V14.01,2013-05-10 01:20:00,
2013-05-09 21:25:00,67.6,40.4,29.94,NNE,30,1.0,2.0,37,0.00,,SCT110,0.01,VWS V14.01,2013-05-10 01:25:00,
2013-05-09 21:30:00,67.6,40.4,29.94,NNE,30,0.0,2.0,37,0.00,,SCT110,0.01,VWS V14.01,2013-05-10 01:30:00,
2013-05-09 21:35:00,67.5,40.3,29.94,NE,35,0.0,2.0,37,0.00,,SCT110,0.01,VWS V14.01,2013-05-10 01:35:00,
2013-05-09 21:40:00,67.5,40.3,29.94,NE,36,1.0,3.0,37,0.00,,SCT110,0.01,VWS V14.01,2013-05-10 01:40:00,
2013-05-09 21:45:00,67.5,41.0,29.94,NE,37,1.0,3.0,38,0.00,,SCT110,0.01,VWS V14.01,2013-05-10 01:45:00,
2013-05-09 21:50:00,67.4,41.6,29.95,NE,53,1.0,3.0,39,0.00,,SCT110,0.01,VWS V14.01,2013-05-10 01:50:00,
2013-05-09 21:55:00,67.3,40.8,29.94,ENE,77,1.0,3.0,38,0.00,,SCT110,0.01,VWS V14.01,2013-05-10 01:55:00,
2013-05-09 22:00:00,67.4,40.9,29.95,East,80,1.0,3.0,38,0.00,,CLR,0.01,VWS V14.01,2013-05-10 02:00:00,
2013-05-09 22:05:00,67.4,40.9,29.95,East,83,0.0,3.0,38,0.00,,CLR,0.01,VWS V14.01,2013-05-10 02:05:00,
2013-05-09 22:10:00,67.3,40.2,29.95,East,84,1.0,3.0,37,0.00,,CLR,0.01,VWS V14.01,2013-05-10 02:10:00,
2013-05-09 22:15:00,67.2,40.8,29.95,ESE,102,2.0,3.0,38,0.00,,CLR,0.01,VWS V14.01,2013-05-10 02:15:00,
2013-05-09 22:20:00,67.2,40.8,29.95,East,93,1.0,4.0,38,0.00,,CLR,0.01,VWS V14.01,2013-05-10 02:20:00,
2013-05-09 22:25:00,67.2,40.8,29.95,East,93,0.0,4.0,38,0.00,,CLR,0.01,VWS V14.01,2013-05-10 02:25:00,
2013-05-09 22:30:00,67.2,41.4,29.95,East,85,0.0,0.0,39,0.00,,CLR,0.01,VWS V14.01,2013-05-10 02:30:00,
2013-05-09 22:35:00,67.2,42.1,29.95,East,83,2.0,4.0,40,0.00,,CLR,0.01,VWS V14.01,2013-05-10 02:35:00,
2013-05-09 22:41:00,67.0,41.9,29.95,East,100,0.0,4.0,40,0.00,,CLR,0.01,VWS V14.01,2013-05-10 02:41:00,
2013-05-09 22:46:00,66.8,42.4,29.95,ESE,106,0.0,4.0,41,0.00,,CLR,0.01,VWS V14.01,2013-05-10 02:46:00,
2013-05-09 22:51:00,66.6,42.2,29.95,ESE,107,0.0,5.0,41,0.00,,CLR,0.01,VWS V14.01,2013-05-10 02:51:00,
2013-05-09 22:56:00,66.5,42.7,29.95,East,97,2.0,5.0,42,0.00,,CLR,0.01,VWS V14.01,2013-05-10 02:56:00,
2013-05-09 23:01:00,66.4,42.6,29.95,East,88,1.0,3.0,42,0.00,,CLR,0.01,VWS V14.01,2013-05-10 03:01:00,
2013-05-09 23:06:00,66.3,43.2,29.95,East,94,1.0,3.0,43,0.00,,CLR,0.01,VWS V14.01,2013-05-10 03:06:00,
2013-05-09 23:11:00,66.2,43.1,29.95,East,97,5.0,5.0,43,0.00,,CLR,0.01,VWS V14.01,2013-05-10 03:11:00,
2013-05-09 23:16:00,66.2,43.1,29.95,East,94,1.0,5.0,43,0.00,,CLR,0.01,VWS V14.01,2013-05-10 03:16:00,
2013-05-09 23:21:00,66.2,43.7,29.95,East,94,0.0,5.0,44,0.00,,CLR,0.01,VWS V14.01,2013-05-10 03:21:00,
2013-05-09 23:26:00,66.1,43.6,29.95,East,96,1.0,6.0,44,0.00,,CLR,0.01,VWS V14.01,2013-05-10 03:26:00,
2013-05-09 23:31:00,66.2,43.7,29.95,East,101,1.0,1.0,44,0.00,,CLR,0.01,VWS V14.01,2013-05-10 03:31:00,
2013-05-09 23:36:00,66.2,44.2,29.95,East,101,0.0,2.0,45,0.00,,CLR,0.01,VWS V14.01,2013-05-10 03:36:00,
2013-05-09 23:41:00,66.0,43.5,29.94,East,101,0.0,2.0,44,0.00,,CLR,0.01,VWS V14.01,2013-05-10 03:41:00,
2013-05-09 23:46:00,65.9,44.6,29.94,East,101,0.0,2.0,46,0.00,,CLR,0.01,VWS V14.01,2013-05-10 03:46:00,
2013-05-09 23:51:00,65.8,44.5,29.94,East,101,1.0,2.0,46,0.00,,CLR,0.01,VWS V14.01,2013-05-10 03:51:00,
2013-05-09 23:56:00,65.8,45.0,29.94,East,101,2.0,3.0,47,0.00,,CLR,0.01,VWS V14.01,2013-05-10 03:56:00,